Time,TemperatureF,DewpointF,PressureIn,WindDirection,WindDirectionDegrees,WindSpeedMPH,WindSpeedGustMPH,Humidity,HourlyPrecipIn,Conditions,Clouds,dailyrainin,SoftwareType,DateUTC
2013-02-13 00:02:00,25.0,24.0,29.88,North,0,0.0,0.0,97,64.84,,,-99.99,,2013-02-13 06:02:00,
2013-02-13 00:11:00,25.0,24.0,29.88,North,0,0.0,0.0,97,64.84,,,-99.99,,2013-02-13 06:11:00,
2013-02-13 00:21:00,25.0,24.0,29.88,North,0,0.0,0.0,97,64.84,,,-99.99,,2013-02-13 06:21:00,
2013-02-13 00:32:00,25.0,24.0,29.88,North,0,0.0,0.0,97,64.84,,,-99.99,,2013-02-13 06:32:00,
2013-02-13 00:42:00,24.0,24.0,29.88,North,0,0.0,0.0,98,64.84,,,-99.99,,2013-02-13 06:42:00,
2013-02-13 00:51:00,24.0,24.0,29.88,North,0,0.0,0.0,98,64.84,,,-99.99,,2013-02-13 06:51:00,
2013-02-13 01:02:00,25.0,24.0,29.88,North,0,0.0,0.0,97,64.84,,,-99.99,,2013-02-13 07:02:00,
2013-02-13 01:11:00,25.0,25.0,29.88,North,0,0.0,0.0,98,64.84,,,-99.99,,2013-02-13 07:11:00,
2013-02-13 01:21:00,25.0,25.0,29.88,North,0,0.0,0.0,98,64.84,,,-99.99,,2013-02-13 07:21:00,
2013-02-13 01:31:00,28.0,27.0,29.88,North,0,0.0,0.0,97,64.84,,,-99.99,,2013-02-13 07:31:00,
2013-02-13 01:41:00,28.0,27.0,29.87,North,0,0.0,0.0,97,64.84,,,-99.99,,2013-02-13 07:41:00,
2013-02-13 01:52:00,28.0,27.0,29.87,North,0,0.0,0.0,97,64.84,,,-99.99,,2013-02-13 07:52:00,
2013-02-13 02:01:00,28.0,27.0,29.87,North,0,0.0,0.0,97,64.84,,,-99.99,,2013-02-13 08:01:00,
2013-02-13 02:11:00,26.0,25.0,29.87,North,0,0.0,0.0,97,64.84,,,-99.99,,2013-02-13 08:11:00,
2013-02-13 02:21:00,26.0,25.0,29.87,North,0,0.0,0.0,97,64.84,,,-99.99,,2013-02-13 08:21:00,
2013-02-13 02:31:00,28.0,27.0,29.86,North,0,0.0,0.0,97,64.84,,,-99.99,,2013-02-13 08:31:00,
2013-02-13 02:43:00,28.0,27.0,29.86,North,0,0.0,0.0,97,64.84,,,-99.99,,2013-02-13 08:43:00,
2013-02-13 02:52:00,28.0,28.0,29.85,North,0,0.0,0.0,98,64.84,,,-99.99,,2013-02-13 08:52:00,
2013-02-13 03:01:00,28.0,28.0,29.85,North,0,0.0,0.0,98,64.84,,,-99.99,,2013-02-13 09:01:00,
2013-02-13 03:11:00,28.0,28.0,29.84,North,0,0.0,0.0,98,64.84,,,-99.99,,2013-02-13 09:11:00,
2013-02-13 03:21:00,28.0,28.0,29.84,North,0,0.0,0.0,98,64.84,,,-99.99,,2013-02-13 09:21:00,
2013-02-13 03:31:00,25.0,25.0,29.84,North,0,0.0,0.0,98,64.84,,,-99.99,,2013-02-13 09:31:00,
2013-02-13 03:41:00,28.0,28.0,29.83,North,0,0.0,0.0,98,64.84,,,-99.99,,2013-02-13 09:41:00,
2013-02-13 03:51:00,28.0,28.0,29.83,North,0,0.0,0.0,98,64.84,,,-99.99,,2013-02-13 09:51:00,
2013-02-13 04:01:00,25.0,25.0,29.83,North,0,0.0,0.0,98,64.84,,,-99.99,,2013-02-13 10:01:00,
2013-02-13 04:11:00,24.0,24.0,29.82,North,0,0.0,0.0,98,64.84,,,-99.99,,2013-02-13 10:11:00,
2013-02-13 04:21:00,24.0,24.0,29.82,North,0,0.0,0.0,98,64.84,,,-99.99,,2013-02-13 10:21:00,
2013-02-13 04:32:00,24.0,24.0,29.81,North,0,0.0,0.0,98,64.84,,,-99.99,,2013-02-13 10:32:00,
2013-02-13 04:41:00,27.0,27.0,29.81,North,0,0.0,0.0,98,64.84,,,-99.99,,2013-02-13 10:41:00,
2013-02-13 04:52:00,27.0,27.0,29.81,North,0,0.0,0.0,98,64.84,,,-99.99,,2013-02-13 10:52:00,
2013-02-13 05:01:00,27.0,27.0,29.80,North,0,0.0,0.0,98,64.84,,,-99.99,,2013-02-13 11:01:00,
2013-02-13 05:11:00,26.0,26.0,29.80,North,0,0.0,0.0,98,64.84,,,-99.99,,2013-02-13 11:11:00,
2013-02-13 05:22:00,26.0,26.0,29.80,North,0,0.0,0.0,98,64.84,,,-99.99,,2013-02-13 11:22:00,
2013-02-13 05:32:00,23.0,23.0,29.79,North,0,0.0,0.0,99,64.84,,,-99.99,,2013-02-13 11:32:00,
2013-02-13 05:42:00,23.0,23.0,29.79,North,0,0.0,0.0,99,64.84,,,-99.99,,2013-02-13 11:42:00,
2013-02-13 05:52:00,23.0,23.0,29.79,North,0,0.0,0.0,99,64.84,,,-99.99,,2013-02-13 11:52:00,
2013-02-13 06:02:00,26.0,26.0,29.80,North,0,0.0,0.0,99,64.84,,,-99.99,,2013-02-13 12:02:00,
2013-02-13 06:11:00,26.0,26.0,29.80,North,0,0.0,0.0,99,64.84,,,-99.99,,2013-02-13 12:11:00,
2013-02-13 06:21:00,26.0,26.0,29.80,North,0,0.0,0.0,99,64.84,,,-99.99,,2013-02-13 12:21:00,
2013-02-13 06:32:00,26.0,26.0,29.80,North,0,0.0,0.0,99,64.84,,,-99.99,,2013-02-13 12:32:00,
2013-02-13 06:42:00,26.0,26.0,29.80,North,0,0.0,0.0,99,64.84,,,-99.99,,2013-02-13 12:42:00,
2013-02-13 06:52:00,26.0,26.0,29.80,North,0,0.0,0.0,99,64.84,,,-99.99,,2013-02-13 12:52:00,
2013-02-13 07:02:00,26.0,26.0,29.80,North,0,0.0,0.0,99,64.84,,,-99.99,,2013-02-13 13:02:00,
2013-02-13 07:11:00,24.0,24.0,29.82,North,0,0.0,0.0,99,64.84,,,-99.99,,2013-02-13 13:11:00,
2013-02-13 07:21:00,24.0,24.0,29.82,North,0,0.0,0.0,99,64.84,,,-99.99,,2013-02-13 13:21:00,
2013-02-13 07:31:00,24.0,24.0,29.82,North,0,0.0,0.0,99,64.84,,,-99.99,,2013-02-13 13:31:00,
2013-02-13 07:41:00,27.0,27.0,29.82,North,0,0.0,0.0,100,64.84,,,-99.99,,2013-02-13 13:41:00,
2013-02-13 07:52:00,27.0,27.0,29.82,North,0,0.0,0.0,100,64.84,,,-99.99,,2013-02-13 13:52:00,
2013-02-13 08:01:00,27.0,27.0,29.82,North,0,0.0,0.0,100,64.84,,,-99.99,,2013-02-13 14:01:00,
2013-02-13 08:11:00,29.0,29.0,29.83,North,7,0.0,1.0,99,64.84,,,-99.99,,2013-02-13 14:11:00,
2013-02-13 08:21:00,29.0,29.0,29.83,North,7,0.0,1.0,99,64.84,,,-99.99,,2013-02-13 14:21:00,
2013-02-13 08:31:00,29.0,29.0,29.83,North,7,0.0,1.0,99,64.84,,,-99.99,,2013-02-13 14:31:00,
2013-02-13 08:42:00,29.0,29.0,29.83,SW,221,0.0,2.0,99,64.84,,,-99.99,,2013-02-13 14:42:00,
2013-02-13 08:52:00,29.0,29.0,29.83,SW,221,0.0,2.0,99,64.84,,,-99.99,,2013-02-13 14:52:00,
2013-02-13 09:01:00,30.0,30.0,29.82,WSW,250,0.0,0.0,99,64.84,,,-99.99,,2013-02-13 15:01:00,
2013-02-13 09:11:00,31.0,31.0,29.82,WSW,250,0.0,2.0,98,64.84,,,-99.99,,2013-02-13 15:11:00,
2013-02-13 09:21:00,31.0,31.0,29.82,WSW,250,0.0,2.0,98,64.84,,,-99.99,,2013-02-13 15:21:00,
2013-02-13 09:32:00,32.0,32.0,29.81,North,0,0.0,0.0,98,64.84,,,-99.99,,2013-02-13 15:32:00,
2013-02-13 09:42:00,32.0,32.0,29.81,North,0,0.0,0.0,98,64.84,,,-99.99,,2013-02-13 15:42:00,
2013-02-13 09:52:00,34.0,33.0,29.80,West,270,1.0,5.0,96,64.84,,,-99.99,,2013-02-13 15:52:00,
2013-02-13 10:01:00,35.0,34.0,29.81,SW,228,0.0,1.0,95,64.84,,,-99.99,,2013-02-13 16:01:00,
2013-02-13 10:11:00,36.0,33.0,29.80,SW,218,0.0,2.0,89,64.84,,,-99.99,,2013-02-13 16:11:00,
2013-02-13 10:21:00,36.0,33.0,29.80,SW,218,0.0,2.0,89,64.84,,,-99.99,,2013-02-13 16:21:00,
2013-02-13 10:31:00,37.0,33.0,29.80,NW,307,1.0,4.0,84,64.84,,,-99.99,,2013-02-13 16:31:00,
2013-02-13 10:42:00,37.0,33.0,29.80,NW,307,1.0,4.0,84,64.84,,,-99.99,,2013-02-13 16:42:00,
2013-02-13 10:52:00,38.0,33.0,29.80,WNW,294,1.0,4.0,81,64.84,,,-99.99,,2013-02-13 16:52:00,
2013-02-13 11:01:00,37.0,31.0,29.79,WNW,287,2.0,5.0,80,64.84,,,-99.99,,2013-02-13 17:01:00,
2013-02-13 11:11:00,39.0,33.0,29.79,WNW,301,3.0,9.0,79,64.84,,,-99.99,,2013-02-13 17:11:00,
2013-02-13 11:21:00,39.0,33.0,29.79,WNW,301,3.0,9.0,79,64.84,,,-99.99,,2013-02-13 17:21:00,
2013-02-13 11:32:00,39.0,32.0,29.78,WNW,295,2.0,8.0,75,64.84,,,-99.99,,2013-02-13 17:32:00,
2013-02-13 11:41:00,39.0,32.0,29.78,WNW,295,2.0,8.0,75,64.84,,,-99.99,,2013-02-13 17:41:00,
2013-02-13 11:52:00,38.0,30.0,29.77,SW,232,4.0,8.0,74,64.84,,,-99.99,,2013-02-13 17:52:00,
2013-02-13 12:01:00,40.0,32.0,29.77,WSW,248,2.0,5.0,74,64.84,,,-99.99,,2013-02-13 18:01:00,
2013-02-13 12:11:00,42.0,34.0,29.76,West,269,1.0,5.0,72,64.84,,,-99.99,,2013-02-13 18:11:00,
2013-02-13 12:22:00,42.0,34.0,29.76,West,269,1.0,5.0,72,64.84,,,-99.99,,2013-02-13 18:22:00,
2013-02-13 12:32:00,43.0,34.0,29.75,WSW,257,2.0,7.0,69,64.84,,,-99.99,,2013-02-13 18:32:00,
2013-02-13 12:41:00,43.0,34.0,29.75,WSW,257,2.0,7.0,69,64.84,,,-99.99,,2013-02-13 18:41:00,
2013-02-13 12:52:00,43.0,34.0,29.75,West,263,3.0,9.0,69,64.84,,,-99.99,,2013-02-13 18:52:00,
2013-02-13 13:01:00,44.0,33.0,29.74,West,281,4.0,11.0,64,64.84,,,-99.99,,2013-02-13 19:01:00,
2013-02-13 13:11:00,44.0,32.0,29.73,WNW,283,5.0,11.0,62,64.84,,,-99.99,,2013-02-13 19:11:00,
2013-02-13 13:21:00,44.0,32.0,29.73,WNW,283,5.0,11.0,62,64.84,,,-99.99,,2013-02-13 19:21:00,
2013-02-13 13:31:00,45.0,32.0,29.72,West,264,4.0,12.0,60,64.84,,,-99.99,,2013-02-13 19:31:00,
2013-02-13 13:41:00,45.0,32.0,29.72,WNW,295,5.0,11.0,61,64.84,,,-99.99,,2013-02-13 19:41:00,
2013-02-13 13:52:00,45.0,32.0,29.72,WNW,295,5.0,11.0,61,64.84,,,-99.99,,2013-02-13 19:52:00,
2013-02-13 14:02:00,46.0,33.0,29.72,West,281,5.0,10.0,60,64.84,,,-99.99,,2013-02-13 20:02:00,
2013-02-13 14:11:00,46.0,32.0,29.71,WNW,287,5.0,13.0,59,64.84,,,-99.99,,2013-02-13 20:11:00,
2013-02-13 14:21:00,46.0,32.0,29.71,WNW,287,5.0,13.0,59,64.84,,,-99.99,,2013-02-13 20:21:00,
2013-02-13 14:31:00,47.0,34.0,29.70,WNW,295,5.0,10.0,61,64.84,,,-99.99,,2013-02-13 20:31:00,
2013-02-13 14:41:00,47.0,34.0,29.71,West,280,4.0,12.0,61,64.84,,,-99.99,,2013-02-13 20:41:00,
2013-02-13 14:52:00,47.0,34.0,29.71,West,280,4.0,12.0,61,64.84,,,-99.99,,2013-02-13 20:52:00,
2013-02-13 15:01:00,47.0,34.0,29.70,WNW,291,5.0,12.0,61,64.84,,,-99.99,,2013-02-13 21:01:00,
2013-02-13 15:11:00,47.0,35.0,29.70,WNW,285,5.0,11.0,62,64.84,,,-99.99,,2013-02-13 21:11:00,
2013-02-13 15:21:00,47.0,35.0,29.70,WNW,285,5.0,11.0,62,64.84,,,-99.99,,2013-02-13 21:21:00,
2013-02-13 15:31:00,48.0,36.0,29.70,West,280,5.0,13.0,62,64.84,,,-99.99,,2013-02-13 21:31:00,
2013-02-13 15:42:00,48.0,35.0,29.71,WNW,298,6.0,12.0,60,64.84,,,-99.99,,2013-02-13 21:42:00,
2013-02-13 15:52:00,48.0,35.0,29.71,WNW,298,6.0,12.0,60,64.84,,,-99.99,,2013-02-13 21:52:00,
2013-02-13 16:02:00,48.0,35.0,29.71,West,263,5.0,11.0,60,64.84,,,-99.99,,2013-02-13 22:02:00,
2013-02-13 16:11:00,48.0,34.0,29.71,West,270,5.0,12.0,57,64.84,,,-99.99,,2013-02-13 22:11:00,
2013-02-13 16:21:00,48.0,34.0,29.71,West,270,5.0,12.0,57,64.84,,,-99.99,,2013-02-13 22:21:00,
2013-02-13 16:31:00,48.0,35.0,29.72,WNW,290,3.0,11.0,60,64.84,,,-99.99,,2013-02-13 22:31:00,
2013-02-13 16:42:00,48.0,35.0,29.72,WNW,290,3.0,11.0,60,64.84,,,-99.99,,2013-02-13 22:42:00,
2013-02-13 16:52:00,47.0,35.0,29.72,West,274,6.0,13.0,62,64.84,,,-99.99,,2013-02-13 22:52:00,
2013-02-13 17:01:00,47.0,35.0,29.72,WNW,288,3.0,8.0,63,64.84,,,-99.99,,2013-02-13 23:01:00,
2013-02-13 17:11:00,46.0,36.0,29.72,WNW,283,3.0,7.0,68,64.84,,,-99.99,,2013-02-13 23:11:00,
2013-02-13 17:21:00,46.0,36.0,29.72,WNW,283,3.0,7.0,68,64.84,,,-99.99,,2013-02-13 23:21:00,
2013-02-13 17:32:00,45.0,36.0,29.72,West,270,2.0,6.0,71,64.84,,,-99.99,,2013-02-13 23:32:00,
2013-02-13 17:42:00,45.0,36.0,29.72,West,270,2.0,6.0,71,64.84,,,-99.99,,2013-02-13 23:42:00,
2013-02-13 17:52:00,44.0,36.0,29.72,WSW,256,0.0,3.0,74,64.84,,,-99.99,,2013-02-13 23:52:00,
2013-02-13 18:01:00,43.0,36.0,29.73,SSW,210,0.0,2.0,76,64.84,,,-99.99,,2013-02-14 00:01:00,
2013-02-13 18:11:00,43.0,36.0,29.73,SSW,210,0.0,2.0,76,64.84,,,-99.99,,2013-02-14 00:11:00,
2013-02-13 18:21:00,43.0,36.0,29.73,West,281,1.0,5.0,77,64.84,,,-99.99,,2013-02-14 00:21:00,
2013-02-13 18:32:00,42.0,36.0,29.74,North,0,0.0,0.0,78,64.84,,,-99.99,,2013-02-14 00:32:00,
2013-02-13 18:42:00,42.0,36.0,29.74,North,0,0.0,0.0,78,64.84,,,-99.99,,2013-02-14 00:42:00,
2013-02-13 18:52:00,41.0,35.0,29.75,WNW,285,1.0,4.0,80,64.84,,,-99.99,,2013-02-14 00:52:00,
2013-02-13 19:01:00,41.0,35.0,29.75,WNW,290,2.0,5.0,80,64.84,,,-99.99,,2013-02-14 01:01:00,
2013-02-13 19:11:00,40.0,34.0,29.76,WNW,285,1.0,4.0,80,64.84,,,-99.99,,2013-02-14 01:11:00,
2013-02-13 19:21:00,40.0,34.0,29.76,WNW,285,1.0,4.0,80,64.84,,,-99.99,,2013-02-14 01:21:00,
2013-02-13 19:31:00,40.0,35.0,29.77,WNW,294,2.0,4.0,82,64.84,,,-99.99,,2013-02-14 01:31:00,
2013-02-13 19:41:00,40.0,35.0,29.77,WNW,294,2.0,4.0,82,64.84,,,-99.99,,2013-02-14 01:41:00,
2013-02-13 19:51:00,40.0,35.0,29.77,WNW,293,1.0,5.0,82,64.84,,,-99.99,,2013-02-14 01:51:00,
2013-02-13 20:01:00,39.0,34.0,29.76,NW,322,0.0,4.0,82,64.84,,,-99.99,,2013-02-14 02:01:00,
2013-02-13 20:11:00,39.0,34.0,29.77,North,0,0.0,0.0,83,64.84,,,-99.99,,2013-02-14 02:11:00,
2013-02-13 20:21:00,39.0,34.0,29.77,North,0,0.0,0.0,83,64.84,,,-99.99,,2013-02-14 02:21:00,
2013-02-13 20:31:00,38.0,33.0,29.77,North,0,0.0,0.0,83,64.84,,,-99.99,,2013-02-14 02:31:00,
2013-02-13 20:41:00,38.0,33.0,29.77,North,0,0.0,0.0,83,64.84,,,-99.99,,2013-02-14 02:41:00,
2013-02-13 20:52:00,38.0,33.0,29.77,North,0,0.0,0.0,83,64.84,,,-99.99,,2013-02-14 02:52:00,
2013-02-13 21:02:00,36.0,32.0,29.77,North,0,0.0,0.0,86,64.84,,,-99.99,,2013-02-14 03:02:00,
2013-02-13 21:11:00,36.0,33.0,29.77,North,0,0.0,0.0,88,64.84,,,-99.99,,2013-02-14 03:11:00,
2013-02-13 21:21:00,36.0,33.0,29.77,North,0,0.0,0.0,88,64.84,,,-99.99,,2013-02-14 03:21:00,
2013-02-13 21:31:00,35.0,32.0,29.77,North,0,0.0,0.0,89,64.84,,,-99.99,,2013-02-14 03:31:00,
2013-02-13 21:42:00,35.0,32.0,29.76,North,0,0.0,0.0,89,64.84,,,-99.99,,2013-02-14 03:42:00,
2013-02-13 21:52:00,35.0,32.0,29.76,North,0,0.0,0.0,89,64.84,,,-99.99,,2013-02-14 03:52:00,
2013-02-13 22:01:00,34.0,31.0,29.77,North,0,0.0,0.0,90,64.84,,,-99.99,,2013-02-14 04:01:00,
2013-02-13 22:11:00,34.0,32.0,29.77,North,0,0.0,0.0,91,64.84,,,-99.99,,2013-02-14 04:11:00,
2013-02-13 22:21:00,34.0,32.0,29.77,North,0,0.0,0.0,91,64.84,,,-99.99,,2013-02-14 04:21:00,
2013-02-13 22:31:00,34.0,32.0,29.77,SW,228,0.0,1.0,92,64.84,,,-99.99,,2013-02-14 04:31:00,
2013-02-13 22:41:00,34.0,32.0,29.77,SW,228,0.0,1.0,92,64.84,,,-99.99,,2013-02-14 04:41:00,
2013-02-13 22:52:00,34.0,32.0,29.76,SSW,198,0.0,1.0,92,64.84,,,-99.99,,2013-02-14 04:52:00,
2013-02-13 23:01:00,34.0,32.0,29.76,WNW,294,0.0,2.0,92,64.84,,,-99.99,,2013-02-14 05:01:00,
2013-02-13 23:11:00,34.0,32.0,29.76,WNW,294,0.0,2.0,92,64.84,,,-99.99,,2013-02-14 05:11:00,
2013-02-13 23:21:00,34.0,32.0,29.76,West,260,0.0,1.0,92,64.84,,,-99.99,,2013-02-14 05:21:00,
2013-02-13 23:31:00,34.0,32.0,29.76,West,260,0.0,1.0,91,64.84,,,-99.99,,2013-02-14 05:31:00,
2013-02-13 23:41:00,34.0,32.0,29.76,West,260,0.0,1.0,91,64.84,,,-99.99,,2013-02-14 05:41:00,
2013-02-13 23:52:00,35.0,33.0,29.76,WSW,243,0.0,2.0,92,64.84,,,-99.99,,2013-02-14 05:52:00,